| time (UTC) | temp C | wind direction | speed KPH | gust KPH | rain 1hr cm | rain 24hr cm | rain mn cm | humidity % | barometer mb |
| 20260504014433 | 11 | 148 | 0.0 | 0.0 | 0.00 | 0.00 | 0.00 | 82 | 1016.5 |
| 20260504013331 | 11 | 148 | 0.0 | 0.0 | 0.00 | 0.00 | 0.00 | 80 | 1016.2 |
| 20260504011128 | 11 | 148 | 0.0 | 0.0 | 0.00 | 0.00 | 0.00 | 79 | 1016.2 |
| 20260504010025 | 12 | 148 | 0.0 | 0.0 | 0.00 | 0.00 | 0.00 | 77 | 1016.2 |
| 20260504004924 | 12 | 148 | 0.0 | 0.0 | 0.00 | 0.00 | 0.00 | 76 | 1016.2 |
| 20260504003819 | 13 | 148 | 0.0 | 0.0 | 0.00 | 0.00 | 0.00 | 73 | 1015.9 |
| 20260504002717 | 14 | 148 | 0.0 | 0.0 | 0.00 | 0.00 | 0.00 | 70 | 1015.9 |
| 20260504001616 | 15 | 148 | 0.0 | 0.0 | 0.00 | 0.00 | 0.00 | 63 | 1015.9 |
| 20260504000504 | 16 | 148 | 0.0 | 1.6 | 0.00 | 0.00 | 0.00 | 59 | 1015.9 |
| 20260503235402 | 18 | 196 | 0.0 | 0.0 | 0.00 | 0.00 | 0.00 | 54 | 1015.9 |
| 20260503234300 | 20 | 196 | 0.0 | 0.0 | 0.00 | 0.00 | 0.00 | 49 | 1016.2 |
| 20260503233157 | 21 | 196 | 0.0 | 0.0 | 0.00 | 0.00 | 0.00 | 45 | 1016.2 |
| 20260503232055 | 20 | 196 | 0.0 | 3.2 | 0.00 | 0.00 | 0.00 | 45 | 1016.2 |
| 20260503230952 | 20 | 104 | 1.6 | 6.4 | 0.00 | 0.00 | 0.00 | 44 | 1016.2 |
| 20260503225850 | 20 | 134 | 0.0 | 3.2 | 0.00 | 0.00 | 0.00 | 45 | 1016.5 |
| 20260503224747 | 21 | 148 | 1.6 | 9.7 | 0.00 | 0.00 | 0.00 | 44 | 1016.5 |
| 20260503223645 | 21 | 111 | 3.2 | 8.0 | 0.00 | 0.00 | 0.00 | 42 | 1016.5 |
| 20260503222543 | 21 | 166 | 4.8 | 4.8 | 0.00 | 0.00 | 0.00 | 42 | 1016.5 |
| 20260503221440 | 21 | 231 | 3.2 | 11.3 | 0.00 | 0.00 | 0.00 | 43 | 1016.9 |
| 20260503220338 | 21 | 189 | 0.0 | 4.8 | 0.00 | 0.00 | 0.00 | 43 | 1016.9 |
| 20260503215235 | 21 | 246 | 4.8 | 8.0 | 0.00 | 0.00 | 0.00 | 41 | 1016.9 |
| 20260503214133 | 21 | 232 | 6.4 | 6.4 | 0.00 | 0.00 | 0.00 | 42 | 1016.9 |
| 20260503213030 | 21 | 193 | 1.6 | 9.7 | 0.00 | 0.00 | 0.00 | 43 | 1017.2 |
| 20260503211928 | 21 | 203 | 1.6 | 14.5 | 0.00 | 0.00 | 0.00 | 42 | 1017.2 |
| 20260503210826 | 21 | 169 | 8.0 | 12.9 | 0.00 | 0.00 | 0.00 | 41 | 1017.2 |
| 20260503205723 | 21 | 166 | 3.2 | 9.7 | 0.00 | 0.00 | 0.00 | 43 | 1017.6 |
| 20260503204621 | 21 | 314 | 1.6 | 11.3 | 0.00 | 0.00 | 0.00 | 42 | 1017.6 |
| 20260503203519 | 21 | 60 | 0.0 | 8.0 | 0.00 | 0.00 | 0.00 | 40 | 1017.9 |
| 20260503202414 | 21 | 168 | 4.8 | 11.3 | 0.00 | 0.00 | 0.00 | 43 | 1017.9 |
| 20260503201233 | 20 | 179 | 0.0 | 9.7 | 0.00 | 0.00 | 0.00 | 41 | 1018.2 |
| 20260503200130 | 20 | 176 | 1.6 | 14.5 | 0.00 | 0.00 | 0.00 | 44 | 1018.6 |
| 20260503195028 | 20 | 215 | 8.0 | 14.5 | 0.00 | 0.00 | 0.00 | 41 | 1018.6 |
| 20260503193926 | 20 | 35 | 0.0 | 11.3 | 0.00 | 0.00 | 0.00 | 42 | 1018.9 |
| 20260503192823 | 20 | 193 | 3.2 | 11.3 | 0.00 | 0.00 | 0.00 | 43 | 1018.9 |
| 20260503191721 | 19 | 103 | 1.6 | 16.1 | 0.00 | 0.00 | 0.00 | 44 | 1018.9 |
| 20260503190619 | 19 | 333 | 0.0 | 9.7 | 0.00 | 0.00 | 0.00 | 42 | 1019.3 |
| 20260503185516 | 20 | 191 | 3.2 | 6.4 | 0.00 | 0.00 | 0.00 | 42 | 1019.3 |
| 20260503184413 | 19 | 285 | 1.6 | 11.3 | 0.00 | 0.00 | 0.00 | 42 | 1019.3 |
| 20260503183311 | 18 | 181 | 4.8 | 11.3 | 0.00 | 0.00 | 0.00 | 50 | 1019.6 |
| 20260503182206 | 18 | 357 | 3.2 | 6.4 | 0.00 | 0.00 | 0.00 | 46 | 1019.6 |
| 20260503181104 | 19 | 200 | 0.0 | 6.4 | 0.00 | 0.00 | 0.00 | 46 | 1019.6 |
| 20260503180002 | 18 | 173 | 0.0 | 14.5 | 0.00 | 0.00 | 0.00 | 46 | 1019.9 |
| 20260503171903 | 17 | 147 | 8.0 | 9.7 | 0.00 | 0.00 | 0.00 | 51 | 1020.3 |
| 20260503170801 | 16 | 323 | 3.2 | 11.3 | 0.00 | 0.00 | 0.00 | 50 | 1020.6 |
| 20260503160145 | 15 | 30 | 3.2 | 9.7 | 0.00 | 0.00 | 0.00 | 53 | 1020.9 |
| 20260503150631 | 14 | 31 | 3.2 | 3.2 | 0.00 | 0.00 | 0.00 | 57 | 1021.3 |
| 20260503130504 | 8 | 14 | 0.0 | 3.2 | 0.00 | 0.00 | 0.00 | 100 | 1020.9 |
| 20260503090230 | 4 | 327 | 0.0 | 0.0 | 0.00 | 0.00 | 0.00 | 100 | 1018.9 |
| 20260503072315 | 6 | 327 | 0.0 | 0.0 | 0.00 | 0.00 | 0.00 | 100 | 1018.2 |
| 20260503070113 | 6 | 327 | 0.0 | 0.0 | 0.00 | 0.00 | 0.00 | 100 | 1017.9 |
| 20260503053300 | 6 | 59 | 0.0 | 0.0 | 0.00 | 0.00 | 0.00 | 100 | 1017.9 |
| 20260503052158 | 6 | 59 | 0.0 | 0.0 | 0.00 | 0.00 | 0.00 | 99 | 1017.9 |
| 20260503051055 | 7 | 59 | 0.0 | 0.0 | 0.00 | 0.00 | 0.00 | 98 | 1017.9 |
| 20260503045953 | 7 | 59 | 0.0 | 0.0 | 0.00 | 0.00 | 0.00 | 96 | 1017.9 |
| 20260503044850 | 7 | 59 | 0.0 | 0.0 | 0.00 | 0.00 | 0.00 | 94 | 1017.9 |
| 20260503043747 | 8 | 59 | 0.0 | 0.0 | 0.00 | 0.00 | 0.00 | 92 | 1017.9 |
| 20260503042645 | 8 | 59 | 0.0 | 0.0 | 0.00 | 0.00 | 0.00 | 91 | 1017.6 |
| 20260503041543 | 8 | 59 | 0.0 | 0.0 | 0.00 | 0.00 | 0.00 | 86 | 1017.6 |
| 20260503040440 | 9 | 57 | 0.0 | 0.0 | 0.00 | 0.00 | 0.00 | 85 | 1017.6 |
| 20260503035338 | 10 | 52 | 0.0 | 0.0 | 0.00 | 0.00 | 0.00 | 82 | 1017.6 |
| 20260503034235 | 10 | 265 | 0.0 | 1.6 | 0.00 | 0.00 | 0.00 | 79 | 1017.6 |
| 20260503033133 | 11 | 127 | 0.0 | 0.0 | 0.00 | 0.00 | 0.00 | 75 | 1017.2 |
| 20260503032031 | 11 | 11 | 0.0 | 0.0 | 0.00 | 0.00 | 0.00 | 74 | 1017.2 |
| 20260503030928 | 11 | 312 | 3.2 | 4.8 | 0.00 | 0.00 | 0.00 | 72 | 1017.6 |
| 20260503025826 | 12 | 350 | 1.6 | 4.8 | 0.00 | 0.00 | 0.00 | 70 | 1017.6 |
| 20260503024723 | 12 | 290 | 3.2 | 9.7 | 0.00 | 0.00 | 0.00 | 68 | 1017.6 |
| 20260503023621 | 12 | 328 | 1.6 | 12.9 | 0.00 | 0.00 | 0.00 | 65 | 1017.2 |
| 20260503022519 | 12 | 323 | 4.8 | 16.1 | 0.00 | 0.00 | 0.00 | 62 | 1016.9 |
| 20260503021417 | 13 | 52 | 0.0 | 4.8 | 0.00 | 0.00 | 0.00 | 61 | 1016.9 |
| 20260503020315 | 13 | 74 | 0.0 | 0.0 | 0.00 | 0.00 | 0.00 | 62 | 1016.9 |
| 20260503015212 | 12 | 328 | 0.0 | 0.0 | 0.00 | 0.00 | 0.00 | 63 | 1016.5 |